TimeMST,TemperatureF,Dew PointF,Humidity,Sea Level PressureIn,VisibilityMPH,Wind Direction,Wind SpeedMPH,Gust SpeedMPH,PrecipitationIn,Events,Conditions,WindDirDegrees,DateUTC
12:15 AM,48.6,21.7,35,30.23,10.0,Calm,Calm,-,N/A,,Clear,0,2012-11-04 06:15:00
12:35 AM,47.7,20.7,34,30.23,10.0,Calm,Calm,-,N/A,,Clear,0,2012-11-04 06:35:00
12:55 AM,43.3,19.4,38,30.25,10.0,NW,4.6,-,N/A,,Clear,320,2012-11-04 06:55:00
1:15 AM,46.0,19.8,35,30.25,10.0,NNW,4.6,-,N/A,,Clear,340,2012-11-04 07:15:00
1:35 AM,44.8,18.5,35,30.25,10.0,North,6.9,-,N/A,,Clear,350,2012-11-04 07:35:00
1:55 AM,46.4,18.1,32,30.25,10.0,NNE,5.8,-,N/A,,Clear,20,2012-11-04 07:55:00
1:15 AM,43.0,17.2,36,30.25,10.0,North,4.6,-,N/A,,Clear,350,2012-11-04 08:15:00
1:35 AM,42.3,16.7,36,30.25,10.0,NNW,8.1,-,N/A,,Clear,330,2012-11-04 08:35:00
1:55 AM,42.8,16.2,34,30.25,10.0,NNW,10.4,-,N/A,,Clear,330,2012-11-04 08:55:00
2:15 AM,44.2,15.4,31,30.25,10.0,North,9.2,-,N/A,,Clear,350,2012-11-04 09:15:00
2:35 AM,43.5,14.4,31,30.25,10.0,North,8.1,-,N/A,,Clear,360,2012-11-04 09:35:00
2:55 AM,39.7,14.9,36,30.25,10.0,NW,8.1,-,N/A,,Clear,310,2012-11-04 09:55:00
3:15 AM,41.4,15.4,35,30.25,10.0,NW,4.6,-,N/A,,Clear,320,2012-11-04 10:15:00
3:35 AM,40.3,14.5,35,30.25,10.0,NW,6.9,-,N/A,,Clear,310,2012-11-04 10:35:00
3:55 AM,39.6,14.0,35,30.26,10.0,NW,9.2,-,N/A,,Clear,320,2012-11-04 10:55:00
4:15 AM,39.7,14.9,36,30.26,10.0,NNW,6.9,-,N/A,,Clear,330,2012-11-04 11:15:00
4:35 AM,40.8,14.9,35,30.27,10.0,Calm,Calm,-,N/A,,Clear,0,2012-11-04 11:35:00
4:55 AM,39.4,14.2,36,30.28,10.0,NNW,4.6,-,N/A,,Clear,340,2012-11-04 11:55:00
5:15 AM,38.3,14.0,37,30.27,10.0,NW,6.9,-,N/A,,Clear,310,2012-11-04 12:15:00
5:35 AM,40.5,13.3,33,30.28,10.0,NNW,8.1,-,N/A,,Clear,340,2012-11-04 12:35:00
5:55 AM,38.3,13.3,36,30.28,10.0,NW,6.9,-,N/A,,Clear,320,2012-11-04 12:55:00
6:15 AM,37.9,13.3,36,30.29,10.0,NNW,5.8,-,N/A,,Clear,340,2012-11-04 13:15:00
6:35 AM,35.6,12.2,38,30.29,10.0,NW,6.9,-,N/A,,Clear,310,2012-11-04 13:35:00
6:55 AM,34.9,12.6,40,30.30,10.0,NW,5.8,-,N/A,,Clear,320,2012-11-04 13:55:00
7:15 AM,39.2,13.1,34,30.30,10.0,NNW,5.8,-,N/A,,Clear,330,2012-11-04 14:15:00
7:35 AM,42.4,13.1,30,30.30,10.0,NNW,3.5,-,N/A,,Clear,330,2012-11-04 14:35:00
7:55 AM,45.3,13.5,28,30.31,10.0,Calm,Calm,-,N/A,,Clear,0,2012-11-04 14:55:00
8:15 AM,47.3,14.0,26,30.33,10.0,NNW,3.5,-,N/A,,Clear,340,2012-11-04 15:15:00
8:35 AM,50.4,14.7,24,30.33,10.0,NNW,4.6,-,N/A,,Clear,330,2012-11-04 15:35:00
8:55 AM,53.6,14.7,21,30.33,10.0,NW,5.8,-,N/A,,Clear,310,2012-11-04 15:55:00
9:15 AM,54.7,14.9,21,30.33,10.0,NW,3.5,-,N/A,,Clear,320,2012-11-04 16:15:00
9:35 AM,57.0,14.9,19,30.33,10.0,North,4.6,-,N/A,,Clear,360,2012-11-04 16:35:00
9:55 AM,58.8,14.4,18,30.33,10.0,NNE,5.8,-,N/A,,Clear,30,2012-11-04 16:55:00
10:15 AM,59.2,14.5,17,30.33,10.0,ENE,4.6,-,N/A,,Clear,70,2012-11-04 17:15:00
10:35 AM,60.1,15.1,17,30.32,10.0,NNE,4.6,-,N/A,,Clear,30,2012-11-04 17:35:00
10:55 AM,61.9,15.6,17,30.32,10.0,NE,4.6,-,N/A,,Clear,50,2012-11-04 17:55:00
11:15 AM,62.6,15.6,16,30.30,10.0,Calm,Calm,-,N/A,,Clear,0,2012-11-04 18:15:00
11:55 AM,65.7,15.6,15,30.28,10.0,NNE,3.5,-,N/A,,Clear,30,2012-11-04 18:55:00
12:15 PM,66.4,16.0,14,30.27,10.0,East,4.6,-,N/A,,Clear,80,2012-11-04 19:15:00
12:35 PM,66.4,16.2,14,30.26,10.0,North,4.6,-,N/A,,Clear,10,2012-11-04 19:35:00
12:55 PM,67.6,16.5,14,30.26,10.0,Calm,Calm,-,N/A,,Clear,0,2012-11-04 19:55:00
1:15 PM,68.2,16.5,14,30.25,10.0,Calm,Calm,-,N/A,,Clear,0,2012-11-04 20:15:00
1:35 PM,69.1,16.7,13,30.24,10.0,ENE,3.5,-,N/A,,Clear,60,2012-11-04 20:35:00
1:55 PM,69.6,16.7,13,30.23,10.0,WNW,3.5,-,N/A,,Clear,300,2012-11-04 20:55:00
2:15 PM,70.7,17.1,13,30.23,10.0,Calm,Calm,-,N/A,,Clear,0,2012-11-04 21:15:00
2:35 PM,70.5,16.5,13,30.22,10.0,Calm,Calm,-,N/A,,Clear,0,2012-11-04 21:35:00
2:55 PM,70.7,16.5,13,30.22,10.0,North,3.5,-,N/A,,Clear,10,2012-11-04 21:55:00
3:15 PM,70.9,16.7,13,30.22,10.0,NE,3.5,-,N/A,,Clear,50,2012-11-04 22:15:00
3:35 PM,71.4,16.7,12,30.21,10.0,Calm,Calm,-,N/A,,Clear,0,2012-11-04 22:35:00
3:55 PM,70.3,16.5,13,30.21,10.0,ENE,3.5,-,N/A,,Clear,70,2012-11-04 22:55:00
4:15 PM,70.3,16.5,13,30.21,10.0,East,3.5,-,N/A,,Clear,80,2012-11-04 23:15:00
4:35 PM,69.3,16.7,13,30.21,10.0,SSE,3.5,-,N/A,,Clear,150,2012-11-04 23:35:00
4:55 PM,67.5,16.5,14,30.21,10.0,Calm,Calm,-,N/A,,Clear,0,2012-11-04 23:55:00
5:15 PM,65.3,16.3,15,30.22,10.0,SE,4.6,-,N/A,,Clear,130,2012-11-05 00:15:00
5:55 PM,60.8,14.7,17,30.23,10.0,Calm,Calm,-,N/A,,Clear,0,2012-11-05 00:55:00
6:15 PM,58.5,13.6,17,30.24,10.0,Calm,Calm,-,N/A,,Clear,0,2012-11-05 01:15:00
6:35 PM,56.1,12.4,18,30.25,10.0,NNW,6.9,-,N/A,,Clear,330,2012-11-05 01:35:00
6:55 PM,57.7,10.4,15,30.25,10.0,North,3.5,-,N/A,,Clear,10,2012-11-05 01:55:00
7:15 PM,55.8,8.6,15,30.26,10.0,NNW,6.9,-,N/A,,Clear,330,2012-11-05 02:15:00
7:35 PM,49.6,6.8,18,30.25,10.0,NNW,8.1,-,N/A,,Clear,340,2012-11-05 02:35:00
7:55 PM,52.0,7.3,17,30.26,10.0,NNE,6.9,-,N/A,,Clear,30,2012-11-05 02:55:00
8:15 PM,56.5,9.3,15,30.27,10.0,North,9.2,-,N/A,,Clear,10,2012-11-05 03:15:00
8:35 PM,53.6,8.8,17,30.28,10.0,NNE,6.9,-,N/A,,Clear,30,2012-11-05 03:35:00
8:55 PM,50.9,8.1,18,30.29,10.0,NNE,3.5,-,N/A,,Clear,30,2012-11-05 03:55:00
9:15 PM,50.2,7.5,18,30.29,10.0,North,3.5,-,N/A,,Clear,350,2012-11-05 04:15:00
9:35 PM,48.2,7.7,19,30.29,10.0,NNW,3.5,-,N/A,,Clear,340,2012-11-05 04:35:00
9:55 PM,47.7,7.3,19,30.29,10.0,Calm,Calm,-,N/A,,Clear,0,2012-11-05 04:55:00
10:15 PM,45.3,7.0,21,30.29,10.0,Calm,Calm,-,N/A,,Clear,0,2012-11-05 05:15:00
10:35 PM,47.1,7.5,20,30.29,10.0,NW,6.9,-,N/A,,Clear,320,2012-11-05 05:35:00
10:55 PM,45.5,7.5,21,30.28,10.0,NW,9.2,-,N/A,,Clear,310,2012-11-05 05:55:00